Vertical_Velocity
-3 -3 -3 -0 0 -1 -3 1 2 -0 -4 -0 1 -0 -2 -1 -2 -2 -1 -1 -2 -3 -4 -3 -2 -1 -1 0 1 2 1 2 2 1 1 0 -1 -2 -2 -3 -3 -3 -3 -2 -2 -2 -2 -2 -2 -3 -4 -4 -4 -4 -4 -3 -3 -3 -3 -4 -4 -4 -3 -3 -3 -2 -2 -1 -1 -0 0 0 -0 -1 -1 0 1 2 2 1 1 0 1 0 -0 -1
-3 -3 -3 -2 -0 -1 -4 -1 1 2 -1 -1 -1 -1 -1 -2 -2 -2 -1 -1 -1 -2 -4 -4 -4 -3 -2 -2 -1 -0 -0 -0 0 1 1 1 -0 -1 -2 -2 -2 -2 -2 -2 -2 -2 -2 -2 -2 -3 -3 -4 -4 -4 -4 -4 -4 -3 -3 -3 -3 -3 -3 -2 -2 -2 -1 -1 -1 -0 1 1 0 -0 -1 -0 1 2 2 2 2 1 2 1 -0 -1
-2 -4 -4 -2 -0 -0 -2 -4 -2 1 2 -1 -2 -2 -1 -3 -4 -3 -1 -2 -2 -2 -2 -4 -5 -5 -4 -3 -2 -2 -2 -2 -2 -1 -0 0 -0 -0 -1 -1 -1 -1 -2 -2 -2 -2 -2 -2 -2 -3 -3 -3 -4 -4 -4 -4 -4 -3 -3 -3 -2 -2 -2 -2 -2 -1 -1 -1 -0 -0 1 1 1 0 -0 0 0 1 1 1 2 2 3 2 0 -1
-1 -4 -5 -2 -1 -0 -0 -1 -2 -2 1 -0 -2 -2 -2 -3 -4 -4 -2 -1 -2 -3 -4 -4 -5 -6 -5 -4 -3 -2 -3 -3 -3 -3 -2 -1 -1 -1 -1 -1 -1 -1 -1 -1 -2 -2 -2 -2 -2 -2 -3 -3 -3 -4 -4 -4 -4 -3 -2 -2 -1 -1 -1 -1 -1 -1 -1 -0 -0 0 1 1 1 1 1 0 0 0 1 1 1 2 2 2 1 -0
-1 -3 -5 -2 -2 -3 -2 -0 -0 -2 -2 -1 -1 -2 -3 -3 -4 -4 -4 -2 -2 -3 -4 -4 -5 -6 -6 -6 -5 -4 -3 -4 -4 -4 -4 -3 -2 -2 -1 -1 -0 -0 -0 -1 -1 -1 -1 -2 -2 -2 -2 -2 -3 -3 -3 -3 -3 -2 -2 -1 -1 -0 -0 -0 -0 -0 -0 -0 0 0 1 1 1 1 1 1 0 0 0 0 1 1 1 1 1 0
-1 -2 -4 -2 -2 -3 -3 -2 -0 0 -2 -3 -2 -0 -1 -2 -3 -3 -4 -3 -3 -3 -4 -4 -5 -6 -7 -6 -6 -5 -4 -5 -5 -5 -5 -5 -4 -3 -2 -1 -1 -1 -0 -0 -0 -0 -0 -0 -1 -1 -1 -2 -2 -2 -2 -2 -2 -1 -1 -0 -0 -0 0 0 0 0 0 0 1 1 1 1 1 1 1 0 0 0 0 -0 0 0 1 1 1 0
-4 -2 -1 -4 -5 -3 0 -1 -0 1 1 -2 -3 -2 -1 -1 -1 -2 -4 -3 -3 -3 -4 -5 -5 -5 -5 -6 -6 -6 -5 -6 -6 -6 -6 -5 -4 -4 -3 -2 -2 -2 -1 -1 -0 0 1 1 1 0 -0 -0 -1 -1 -1 -1 -1 -1 -0 -0 0 0 1 1 1 1 1 1 1 1 1 1 1 1 1 0 0 -0 -0 -0 -0 -0 -0 -0 -0 -0
-8 -6 -0 -2 -5 -7 -3 -0 1 1 -1 -2 -2 -3 -5 -4 -2 -1 -3 -4 -3 -2 -3 -6 -7 -6 -5 -5 -5 -6 -7 -6 -7 -7 -8 -5 -4 -4 -4 -3 -3 -2 -2 -1 -0 1 2 2 2 2 1 1 1 0 -0 -0 -0 -0 0 0 1 1 1 1 1 1 1 1 1 1 1 1 1 1 1 0 -0 -0 -0 -0 -0 -0 -1 -0 -0 -1
-6 -7 -6 -2 -1 -3 -8 -6 -1 2 -0 -4 -3 -2 -4 -7 -7 -5 -2 -3 -3 -3 -2 -5 -7 -8 -8 -5 -4 -4 -8 -8 -7 -6 -7 -7 -5 -3 -2 -3 -3 -3 -2 -1 -0 1 3 3 3 3 3 2 2 1 1 1 1 0 1 1 1 1 2 2 2 2 2 2 2 1 1 1 1 1 1 0 -0 -0 -0 -0 -1 -1 -1 -1 -1 -1
-4 -3 -6 -6 -2 1 -1 -6 -6 -2 1 -3 -4 -3 -0 -4 -7 -8 -6 -4 -3 -2 -3 -3 -4 -6 -10 -8 -5 -2 -5 -9 -8 -6 -4 -6 -5 -2 -1 -2 -3 -3 -3 -2 -0 1 2 3 4 4 4 3 3 3 2 2 1 1 1 1 1 2 2 2 2 2 2 2 1 1 1 1 1 1 1 0 -0 -0 -1 -1 -1 -1 -1 -1 -1 -1
-5 -4 -2 -5 -4 -2 1 -1 -3 -3 -1 -2 -4 -5 -2 -1 -2 -4 -6 -6 -3 -1 -2 -3 -2 -2 -4 -7 -6 -3 -1 -6 -8 -7 -2 -4 -3 -3 -2 -1 -2 -2 -4 -2 -1 1 2 3 4 4 4 4 4 3 3 2 2 2 1 1 2 2 2 2 2 2 2 1 1 1 1 1 1 1 1 0 -0 -0 -1 -1 -1 -1 -1 -1 -1 -1
-3 -3 -4 -3 -2 -1 -1 -2 -2 -2 -1 -1 -3 -5 -6 -5 -3 -2 -3 -4 -2 -1 -0 -2 -2 -1 0 -2 -3 -3 0 -2 -5 -5 -3 -2 -1 -1 -2 -2 -1 -1 -2 -2 -1 0 1 2 3 4 4 4 4 4 3 3 3 2 2 2 2 2 2 2 2 2 2 1 1 1 1 1 1 1 0 -0 -0 -0 -1 -1 -1 -1 -1 -1 -1 -1
-2 -1 -2 -3 -1 -0 -0 -1 -3 -4 -4 -3 -3 -4 -6 -6 -6 -6 -6 -6 -4 -1 1 -0 -1 -1 2 1 -0 -1 -1 -2 -2 -1 0 -1 -0 1 -1 -3 -2 -0 -1 -1 -1 0 0 1 2 3 4 4 4 4 3 3 3 3 2 2 2 2 2 2 2 2 2 2 2 1 1 1 1 1 0 -0 -0 -0 -0 -0 -0 -1 -1 -1 -1 -1
-3 -3 -3 -3 -2 -3 -3 -3 -4 -5 -6 -5 -6 -7 -8 -6 -6 -6 -6 -9 -9 -6 -0 -2 -2 -1 3 3 3 2 1 -2 -2 0 3 2 2 2 -2 -3 -1 0 -0 -1 -0 0 -0 -0 1 3 3 3 3 3 3 4 4 4 3 2 2 2 2 2 2 2 2 2 2 2 2 1 1 1 0 -0 -0 -0 -0 -0 -0 -1 -1 -1 -1 -1
-3 -2 -4 -4 -4 -4 -4 -4 -5 -6 -7 -6 -6 -8 -10 -10 -9 -8 -5 -7 -8 -7 -2 -5 -5 -3 3 5 5 2 1 1 0 1 2 4 6 4 -1 -3 -2 0 0 -0 -0 0 -0 -1 0 2 2 2 2 3 3 4 4 4 3 3 2 2 2 1 1 2 2 2 2 2 2 1 1 0 0 -0 -0 0 0 -0 -0 -0 -1 -1 -1 -1
-3 -3 -3 -3 -4 -5 -6 -4 -4 -5 -6 -6 -7 -7 -5 -7 -9 -10 -6 -6 -6 -5 -3 -3 -5 -5 -1 7 8 5 -1 -0 1 2 1 4 7 8 0 -3 -2 0 0 -0 -0 -0 -1 -1 -0 1 1 2 2 2 2 3 4 4 4 3 2 2 1 1 1 1 1 1 1 1 1 1 0 0 -0 0 0 0 0 0 0 -0 -1 -1 -1 -1
-1 -2 -6 -6 -5 -5 -7 -8 -7 -6 -5 -5 -7 -8 -6 -4 -4 -6 -7 -5 -4 -4 -4 -1 -2 -4 -5 3 9 10 4 0 1 2 2 4 8 9 3 -2 -2 -1 -0 0 -0 -0 -1 -1 -1 -0 1 1 1 1 1 2 3 4 4 4 3 2 2 1 1 1 1 1 1 1 1 0 0 -0 -0 0 0 1 1 1 0 -0 -0 -0 -0 -0
-2 -1 -3 -6 -6 -5 -4 -5 -7 -9 -8 -7 -7 -8 -9 -6 -3 -2 -6 -5 -3 -2 -4 -1 -0 -1 -1 -2 2 7 10 4 2 2 2 4 7 9 6 1 -2 -2 -1 -0 0 -0 -1 -1 -1 -0 0 0 0 0 0 1 2 3 4 3 3 2 2 1 1 1 1 1 0 0 -0 -0 -0 -0 -0 0 0 1 1 0 0 -0 -0 -0 -0 -0
-4 -2 0 -3 -6 -8 -4 -0 -1 -4 -7 -7 -5 -4 -5 -5 -2 -1 -3 -3 -2 -1 -1 -1 -1 0 2 -1 -0 3 7 5 4 3 2 2 5 8 7 2 -1 -2 -2 -1 -0 -0 -1 -2 -1 -0 0 0 -0 -0 -0 0 1 2 2 3 2 2 2 1 1 1 1 0 0 -0 -0 -0 -0 -0 -0 -0 0 0 0 -0 -0 -0 -0 -0 -0 -0
-6 -4 -0 -1 -4 -8 -8 -3 -0 -1 -4 -5 -4 -3 -2 -2 -1 -1 -2 -2 -1 -0 3 2 1 0 2 0 1 2 4 2 2 1 1 2 5 8 8 3 -0 -3 -3 -1 -0 -0 -2 -2 -2 -1 -0 -0 -0 -0 -1 -0 0 1 1 2 2 2 1 1 1 1 0 0 0 -0 -0 -0 -1 -1 -1 -0 -0 -0 -0 -1 -1 -1 -1 -0 -0 -0
-9 -7 -5 -2 -3 -5 -7 -4 -2 -1 -2 -4 -4 -4 -2 -2 -2 -2 -1 -1 -2 -1 3 3 2 1 2 1 2 3 4 2 1 0 0 2 5 8 8 4 0 -2 -2 -0 0 -0 -2 -4 -3 -2 -1 -1 -1 -1 -1 -1 -0 0 0 1 1 1 1 0 0 0 0 -0 -0 -0 -0 -1 -1 -1 -1 -0 -0 -1 -1 -1 -1 -1 -1 -1 -1 -1
-7 -7 -6 -5 -4 -5 -5 -4 -2 -1 0 -0 -2 -3 -2 -1 -2 -4 -3 -1 -1 -0 2 3 3 3 3 2 3 4 5 2 1 0 0 2 5 9 9 5 2 -0 -0 1 1 -1 -3 -4 -4 -3 -2 -1 -1 -1 -1 -1 -1 -1 -0 0 0 0 0 0 -0 -0 -0 -0 -0 -0 -0 -1 -1 -1 -1 -1 -1 -1 -1 -1 -1 -1 -1 -1 -1 -1
-5 -5 -5 -4 -4 -5 -5 -4 -3 -2 0 2 0 -2 -1 -0 -1 -3 -3 -1 -0 0 1 2 3 4 4 3 3 4 5 4 2 1 0 -0 3 7 8 4 1 -0 -0 1 -0 -2 -5 -5 -5 -4 -2 -2 -1 -1 -1 -1 -1 -1 -1 -0 -0 0 0 0 0 -0 -0 -0 -0 -0 -0 -1 -1 -1 -1 -1 -1 -1 -1 -1 -1 -1 -1 -1 -1 -1
-5 -5 -4 -4 -3 -4 -4 -4 -3 -2 -1 -1 -2 -3 -2 -1 -0 -0 0 0 0 0 0 1 2 4 4 4 4 4 5 4 3 1 -0 -1 0 3 5 2 -0 -2 -1 -0 -1 -3 -5 -5 -4 -3 -2 -1 -0 0 -0 -1 -1 -1 -1 -1 -0 0 1 1 1 0 0 0 0 0 -0 -0 -1 -1 -1 -0 -0 -0 -0 -1 -1 -1 -1 -1 -1 -1
-4 -4 -3 -3 -3 -3 -3 -3 -2 -1 -0 -2 -4 -5 -4 -3 -1 0 1 1 1 0 1 1 2 3 5 5 4 4 5 5 3 1 -1 -3 -2 0 4 1 -1 -3 -2 1 0 -1 -3 -2 -1 -0 -0 -0 0 1 0 -1 -1 -1 -1 -1 -0 0 1 1 1 1 1 1 1 1 0 -0 -0 -1 -1 -0 -0 -0 -0 -0 -0 -1 -1 -1 -1 -0
-4 -5 -4 -5 -4 -4 -4 -3 -2 -1 1 0 -1 -3 -4 -3 -2 -1 0 1 1 1 0 0 1 2 4 4 4 4 5 4 2 -0 -3 -5 -4 -0 4 2 -1 -2 -0 3 4 3 0 0 1 1 0 -1 -1 -0 -1 -1 -2 -1 -1 -1 -0 0 1 1 2 2 2 2 2 1 1 1 0 -0 -0 -0 -0 -0 0 0 0 -0 -0 -0 -0 -0
-4 -4 -4 -5 -5 -5 -5 -4 -3 -1 1 1 1 0 -1 -1 -1 -1 -0 1 2 1 0 0 1 2 4 4 3 3 3 2 1 -1 -4 -5 -3 0 4 2 0 -0 2 5 6 6 4 3 2 1 -0 -2 -2 -2 -2 -2 -2 -1 -0 -0 -0 0 0 1 1 1 2 2 2 2 2 1 1 0 -0 -0 -0 -0 0 0 0 0 0 -0 -0 0
-1 -1 -2 -3 -3 -4 -3 -3 -2 -2 -0 0 0 0 -0 -0 -1 -1 -1 2 2 2 1 1 1 2 2 3 3 3 3 2 -0 -2 -4 -3 -1 1 4 2 2 2 3 4 6 6 6 4 2 0 -1 -3 -3 -3 -3 -2 -2 -1 -0 -0 -1 -1 -1 -1 -1 -0 0 1 2 2 2 2 1 1 0 -0 -0 0 0 1 1 1 1 1 1 1
1 1 0 -0 -1 -1 -1 -1 -1 -1 -0 -0 -0 -0 -0 -0 -1 -1 -0 2 2 2 1 2 2 2 1 2 3 4 4 1 -1 -3 -3 -1 -0 1 3 3 2 2 2 2 4 6 6 4 2 0 -1 -2 -2 -3 -3 -2 -2 -1 -1 -2 -2 -2 -2 -2 -2 -2 -1 -0 0 1 1 1 1 1 0 0 0 0 1 1 1 1 1 1 1 1
3 3 2 1 1 0 -0 -0 -0 0 0 -0 -0 -0 -0 -0 -1 -0 0 1 1 1 1 2 2 2 1 1 2 4 5 1 -2 -3 -1 0 1 2 3 2 1 0 -0 1 2 4 6 4 2 1 0 -0 -1 -2 -2 -3 -3 -3 -3 -3 -3 -3 -3 -3 -3 -2 -2 -1 -0 0 1 1 1 1 1 1 0 0 1 1 1 1 1 2 2 2
3 4 2 2 2 1 1 1 0 0 1 0 0 -0 -0 -0 -0 0 1 1 1 1 1 2 2 1 0 0 1 3 5 2 -1 -3 -1 1 2 2 3 1 0 -1 -1 -0 1 2 5 5 4 2 1 1 -0 -1 -2 -2 -3 -3 -3 -3 -3 -3 -3 -2 -2 -2 -2 -1 -1 -1 -0 0 1 1 1 1 1 1 1 1 1 1 1 2 2 2
2 2 1 1 1 1 1 1 1 1 1 1 1 0 0 0 0 1 1 1 1 1 1 1 1 1 0 0 1 2 4 2 -0 -1 0 1 2 2 2 1 -0 -1 -2 -1 -0 1 4 6 5 3 1 0 -0 -1 -1 -2 -2 -3 -3 -3 -3 -3 -2 -2 -2 -2 -2 -1 -1 -1 -0 0 0 1 1 1 1 1 1 1 1 1 1 1 2 2
1 1 1 0 0 0 1 1 1 1 1 1 1 1 1 1 1 1 1 1 1 1 0 0 1 1 1 1 1 2 2 1 0 0 2 2 2 2 1 1 -0 -1 -1 -1 -0 1 2 4 5 4 3 1 -0 -1 -2 -2 -3 -3 -3 -2 -2 -2 -2 -2 -2 -2 -1 -1 -1 -1 -0 0 0 1 1 1 1 1 1 1 1 1 1 1 1 1
0 1 1 0 0 -0 0 1 1 1 1 1 1 1 1 1 1 1 1 1 1 1 0 0 1 1 1 2 2 1 1 0 0 1 2 2 2 1 2 1 0 -0 -0 -0 -0 0 1 2 4 5 4 2 0 -1 -3 -3 -4 -4 -3 -2 -2 -2 -2 -2 -2 -1 -1 -1 -0 -0 -0 -0 0 0 0 1 1 1 1 2 2 1 1 1 1 1
0 1 1 0 0 0 0 1 1 1 1 1 1 1 1 1 1 1 1 1 1 0 0 0 1 1 1 1 1 1 1 1 1 2 2 2 2 2 2 1 1 1 1 0 0 1 1 1 2 4 4 3 2 -1 -3 -4 -4 -4 -3 -2 -2 -2 -2 -1 -1 -1 -1 -0 -0 -1 -1 -1 -0 -0 0 1 1 1 2 2 2 1 1 0 0 -0
0 1 1 0 0 -0 0 1 1 1 1 1 1 1 1 1 1 1 1 1 0 0 0 0 1 1 1 1 1 1 1 1 1 2 2 2 2 2 2 2 2 1 1 1 1 1 1 1 2 2 3 3 2 0 -2 -3 -3 -3 -3 -3 -3 -2 -2 -1 -1 -1 -1 -1 -1 -1 -1 -1 -1 -0 0 1 1 1 2 2 2 1 1 0 -0 -0
0 0 1 0 0 -0 0 1 1 1 0 0 1 1 1 1 1 1 1 1 0 0 1 1 0 0 0 0 1 1 1 2 2 1 1 2 2 2 2 2 2 2 2 1 1 1 2 2 1 2 2 2 2 1 -0 -1 -1 -2 -3 -4 -3 -2 -2 -2 -2 -1 -1 -1 -2 -1 -1 -1 -1 -0 0 1 1 1 2 2 2 1 1 0 -0 -1
-0 -0 0 0 0 0 0 1 1 1 0 0 0 1 1 1 1 1 0 0 0 1 1 1 0 -0 -0 0 1 1 2 2 2 1 1 1 1 2 2 1 1 1 1 1 1 1 1 1 1 1 1 2 2 2 1 1 -0 -1 -3 -3 -3 -3 -3 -3 -2 -2 -2 -2 -2 -1 -1 -1 -0 0 0 1 1 1 1 1 1 1 1 0 -0 -1
-0 -0 -0 -0 0 0 0 0 0 0 0 0 1 1 1 1 1 0 0 0 0 1 1 0 -0 -0 -1 -0 0 1 2 2 1 1 0 0 1 1 1 1 0 -0 -0 0 0 0 1 1 1 1 1 2 2 1 1 1 0 -1 -2 -2 -2 -3 -4 -4 -3 -3 -2 -2 -2 -2 -1 -1 -0 0 0 1 1 1 1 1 1 1 1 1 -0 -1
-0 -0 -0 0 0 0 1 0 0 0 1 1 1 1 1 1 0 -0 0 0 0 0 0 -0 -0 -1 -1 -1 -1 -0 1 1 1 1 1 1 1 1 2 1 0 -0 -1 -1 -0 -0 -0 0 0 1 2 2 2 1 1 0 0 -0 1 0 -1 -3 -4 -4 -3 -3 -3 -3 -2 -2 -2 -1 -0 0 0 1 1 1 1 1 1 1 1 1 0 -0
-1 -0 -0 0 0 0 0 0 0 1 1 1 1 1 0 0 -0 -0 -0 -0 0 0 -0 -0 -1 -1 -2 -2 -1 -0 1 1 2 2 2 1 1 1 2 1 1 -0 -1 -1 -1 -1 -0 0 0 1 1 2 2 1 0 -0 0 1 3 2 -1 -3 -4 -3 -3 -4 -4 -3 -3 -3 -2 -1 -1 -1 -1 0 1 1 2 2 2 1 1 0 -0 -0
-0 -0 -0 0 0 0 0 0 1 1 1 1 1 1 0 0 -0 -0 -0 -0 -0 -0 -0 -0 -1 -1 -2 -1 -1 0 2 2 3 3 2 2 2 2 1 1 0 -0 -1 -1 -1 -1 -1 0 1 1 1 1 1 1 -0 -0 1 2 4 2 0 -1 -2 -3 -3 -3 -2 -3 -3 -2 -1 -2 -2 -2 -2 -1 -0 1 2 2 2 1 1 0 -0 -0
-0 -0 0 0 0 0 0 1 0 0 0 0 1 1 1 0 -0 -0 -1 -1 -1 -0 -0 -0 -0 -0 -1 -1 -1 0 2 3 4 4 3 2 2 2 1 0 -0 -1 -1 -0 -1 -2 -2 -0 1 1 -0 1 1 1 -0 -0 1 2 3 2 2 1 -0 -3 -4 -3 -2 -3 -2 -2 -1 -3 -4 -4 -3 -2 -1 -0 1 2 2 1 1 0 0 1
0 0 0 1 0 0 1 1 0 0 0 0 1 1 1 0 0 0 -0 -0 -0 -0 -0 -0 -0 0 0 -0 -0 0 1 2 3 4 4 3 2 2 1 1 -0 -0 0 0 -0 -1 -2 -1 -1 -1 -1 1 1 1 0 0 1 1 2 2 3 2 -1 -3 -3 -2 -1 -2 -1 -1 -2 -4 -4 -4 -3 -3 -2 -1 -0 1 1 2 2 1 1 1
1 1 1 1 1 0 0 -0 -0 -0 -0 0 0 1 1 1 1 1 0 0 -0 -0 -0 -0 0 -0 -0 -0 -0 -0 -0 0 1 2 3 3 2 2 1 1 0 0 0 1 1 0 0 -1 -1 -2 -1 0 1 1 0 -0 0 0 1 1 2 2 -0 -1 -1 -0 -1 -1 -1 -2 -3 -4 -4 -3 -3 -3 -3 -2 -1 0 1 2 2 2 1 1
1 1 1 1 1 0 -0 -0 -0 -0 -0 -0 0 0 1 1 1 1 1 1 0 -0 -0 0 0 0 -0 -1 -0 -0 -1 -0 0 1 2 2 1 1 1 1 0 0 0 -0 -0 0 1 0 -0 -1 -1 -0 -0 -0 -0 -0 -0 -0 -1 0 1 1 0 1 1 0 -1 -1 -1 -2 -3 -3 -2 -2 -4 -4 -4 -3 -1 0 1 2 2 2 1 1
2 2 1 1 0 -0 -0 -0 -0 -0 -0 -0 -0 0 1 1 1 1 1 1 1 0 0 0 0 0 0 0 -0 -0 -0 -0 -0 0 1 1 1 0 0 -0 -0 -0 -0 -1 -1 -1 -0 0 0 0 0 0 -0 -1 -1 -0 -0 -0 -1 -1 -0 1 1 0 0 -0 0 -0 -1 -2 -2 -1 -1 -2 -4 -4 -3 -2 -1 0 1 1 2 1 1 0
2 1 1 1 0 -0 -0 -0 -0 -0 -1 -0 0 1 2 2 2 2 1 1 1 1 0 0 0 0 1 1 1 0 -0 -0 -0 -0 -0 -0 -0 -0 -0 -1 -1 -1 -1 -1 -1 -1 -1 -0 -0 0 1 1 0 -0 -1 -0 -0 -0 -1 -1 -0 0 0 -0 -0 0 1 0 -1 -1 -1 -1 -1 -3 -4 -3 -2 -1 -0 0 0 1 1 1 1 1
2 1 1 1 0 0 -0 -0 -0 -0 -0 0 1 1 2 2 2 2 1 1 1 0 0 0 0 1 1 1 1 0 -0 -0 -0 -0 -0 -1 -1 -1 -1 -1 -1 -1 -1 -1 -1 -1 -1 -1 -0 -0 0 0 0 -0 -0 -0 -0 -0 -0 -0 0 0 0 0 0 0 1 0 -0 -1 -0 -1 -2 -3 -2 -1 -1 -1 -0 0 0 0 1 1 1 1
2 1 1 1 1 0 -0 -0 -0 -0 0 1 1 2 2 2 2 1 1 1 0 0 0 0 1 1 1 1 0 -0 -0 -0 -0 -0 -1 -1 -1 -1 -1 -1 -1 -1 -1 -1 -1 -1 -1 -1 -0 -0 -0 -0 -0 -0 -0 -0 -0 0 1 1 0 0 1 0 0 0 0 -0 -0 -1 -1 -1 -1 -1 0 0 0 0 0 0 0 0 1 1 2 1
1 1 1 1 0 -0 -0 -0 -0 0 1 1 1 2 1 1 1 1 1 1 0 0 0 1 1 1 0 0 0 -0 -0 -0 -0 -0 -1 -1 -1 -1 -1 -1 -1 -1 -1 -1 -1 -1 -1 -1 -0 -0 -0 -0 -0 -1 -1 -1 -0 0 1 0 1 1 1 0 0 -0 -0 -0 -1 -1 -1 -0 0 1 2 2 2 1 1 0 -0 0 1 2 2 1
Height
5579 5578 5576 5574 5572 5570 5568 5566 5564 5561 5559 5558 5556 5554 5551 5549 5547 5545 5544 5541 5540 5538 5536 5535 5533 5532 5530 5528 5527 5525 5523 5521 5520 5518 5516 5514 5512 5511 5509 5508 5506 5505 5504 5502 5501 5500 5498 5497 5495 5494 5492 5491 5490 5489 5488 5487 5486 5485 5484 5483 5483 5482 5482 5481 5481 5481 5480 5480 5480 5480 5480 5479 5478 5478 5478 5478 5478 5479 5479 5478 5477 5477 5477 5476 5475 5475
5574 5572 5571 5569 5566 5565 5562 5560 5558 5556 5554 5551 5549 5547 5545 5543 5541 5539 5537 5535 5533 5531 5529 5527 5526 5524 5523 5521 5519 5517 5515 5513 5512 5510 5509 5507 5505 5503 5502 5500 5499 5497 5496 5495 5493 5491 5490 5488 5487 5485 5484 5482 5481 5480 5479 5478 5477 5476 5476 5475 5474 5474 5473 5473 5473 5472 5472 5472 5472 5472 5472 5472 5471 5471 5470 5471 5471 5471 5471 5471 5471 5471 5471 5470 5470 5469
5569 5567 5565 5563 5561 5559 5557 5554 5552 5550 5548 5546 5543 5541 5539 5536 5534 5532 5531 5529 5526 5524 5522 5520 5518 5516 5515 5513 5511 5509 5507 5505 5504 5502 5501 5499 5497 5496 5494 5492 5491 5490 5488 5486 5485 5483 5482 5480 5478 5477 5475 5474 5472 5471 5470 5469 5468 5468 5467 5466 5466 5466 5466 5465 5465 5465 5465 5465 5465 5465 5465 5465 5464 5464 5464 5464 5464 5464 5465 5465 5465 5465 5465 5465 5464 5463
5564 5561 5559 5558 5556 5553 5551 5549 5546 5544 5541 5539 5537 5534 5532 5530 5528 5526 5524 5522 5520 5517 5515 5512 5511 5509 5507 5505 5503 5501 5499 5497 5495 5494 5492 5491 5489 5487 5486 5484 5483 5481 5480 5478 5477 5475 5473 5471 5470 5468 5466 5465 5464 5462 5461 5461 5460 5460 5459 5459 5458 5458 5458 5458 5458 5458 5458 5458 5458 5458 5458 5458 5458 5458 5458 5458 5458 5458 5459 5459 5459 5460 5459 5459 5459 5458
5558 5556 5553 5551 5550 5547 5545 5543 5540 5537 5535 5533 5531 5528 5526 5523 5521 5519 5517 5515 5513 5510 5507 5505 5503 5501 5499 5497 5495 5493 5491 5489 5487 5485 5483 5482 5481 5479 5477 5476 5475 5473 5471 5470 5468 5466 5465 5463 5461 5460 5458 5456 5455 5454 5453 5453 5452 5452 5452 5452 5451 5451 5451 5451 5451 5451 5451 5452 5452 5452 5452 5452 5452 5452 5453 5453 5453 5453 5453 5454 5454 5454 5454 5454 5454 5454
5553 5550 5547 5545 5543 5541 5539 5536 5534 5531 5529 5526 5524 5522 5520 5517 5514 5512 5510 5508 5506 5503 5500 5498 5495 5493 5491 5489 5487 5485 5483 5481 5478 5476 5475 5473 5471 5470 5469 5467 5466 5464 5463 5461 5460 5458 5456 5455 5453 5451 5450 5449 5447 5446 5446 5445 5445 5445 5445 5445 5445 5445 5445 5445 5445 5446 5446 5446 5446 5447 5447 5447 5447 5448 5448 5448 5448 5448 5449 5449 5449 5450 5450 5450 5450 5450
5546 5544 5542 5539 5536 5534 5533 5531 5528 5525 5522 5520 5517 5515 5513 5511 5508 5505 5503 5501 5498 5496 5493 5490 5487 5485 5483 5481 5478 5476 5474 5472 5470 5468 5466 5464 5463 5461 5460 5458 5456 5455 5454 5453 5451 5450 5448 5447 5445 5444 5442 5441 5440 5440 5439 5439 5439 5439 5439 5439 5439 5439 5440 5440 5440 5440 5441 5441 5441 5442 5442 5443 5443 5443 5443 5444 5444 5444 5445 5445 5445 5446 5446 5446 5446 5447
5539 5537 5536 5533 5531 5528 5526 5524 5522 5519 5516 5513 5510 5508 5506 5503 5501 5498 5496 5494 5491 5488 5486 5483 5480 5477 5475 5472 5470 5467 5464 5462 5461 5459 5457 5456 5454 5452 5451 5449 5447 5446 5445 5444 5443 5442 5441 5439 5438 5437 5436 5435 5434 5433 5433 5433 5433 5433 5433 5433 5434 5434 5435 5435 5435 5436 5436 5437 5437 5438 5438 5438 5439 5439 5439 5440 5440 5440 5441 5441 5441 5442 5442 5443 5443 5443
5533 5531 5529 5527 5525 5523 5520 5517 5515 5512 5510 5507 5504 5501 5498 5496 5493 5491 5489 5487 5484 5481 5478 5475 5472 5469 5466 5464 5461 5459 5456 5453 5451 5450 5448 5447 5445 5443 5441 5440 5438 5437 5436 5435 5435 5434 5433 5432 5431 5430 5429 5429 5428 5427 5427 5427 5427 5428 5428 5428 5429 5430 5430 5431 5431 5431 5432 5432 5433 5434 5434 5435 5435 5436 5436 5436 5436 5437 5437 5438 5438 5439 5439 5439 5440 5440
5526 5525 5522 5520 5518 5516 5514 5511 5508 5505 5502 5500 5497 5493 5491 5489 5486 5483 5481 5479 5477 5474 5471 5467 5464 5461 5458 5455 5452 5450 5447 5444 5441 5440 5439 5438 5437 5435 5432 5431 5430 5429 5428 5427 5427 5426 5426 5426 5425 5424 5424 5423 5423 5422 5422 5422 5422 5423 5423 5424 5425 5425 5426 5426 5427 5427 5428 5429 5429 5430 5431 5431 5431 5432 5432 5433 5433 5434 5434 5435 5435 5436 5436 5436 5436 5437
5520 5518 5516 5514 5511 5509 5507 5505 5502 5498 5495 5493 5490 5486 5483 5481 5478 5476 5473 5471 5468 5466 5464 5460 5456 5453 5451 5448 5444 5441 5438 5436 5433 5431 5429 5429 5428 5426 5424 5423 5422 5421 5420 5420 5419 5419 5419 5419 5419 5419 5418 5418 5418 5418 5418 5418 5418 5419 5419 5420 5421 5421 5422 5422 5423 5424 5424 5425 5426 5426 5427 5428 5428 5429 5429 5430 5431 5431 5431 5431 5432 5432 5432 5433 5433 5433
5513 5511 5509 5507 5505 5502 5500 5497 5494 5491 5488 5486 5483 5479 5476 5472 5469 5467 5466 5462 5460 5457 5456 5452 5448 5444 5442 5440 5437 5433 5429 5427 5425 5423 5422 5420 5419 5417 5416 5416 5415 5414 5413 5413 5413 5413 5413 5413 5413 5413 5413 5413 5413 5413 5414 5414 5415 5415 5416 5416 5417 5417 5418 5419 5419 5420 5421 5421 5422 5423 5424 5424 5425 5426 5426 5427 5427 5428 5428 5428 5429 5429 5429 5429 5430 5430
5506 5504 5502 5500 5497 5495 5493 5490 5486 5483 5480 5477 5474 5471 5468 5464 5461 5458 5456 5453 5451 5449 5447 5444 5441 5436 5433 5431 5428 5425 5421 5419 5417 5416 5415 5413 5411 5410 5409 5409 5408 5408 5408 5407 5407 5407 5407 5408 5408 5409 5409 5409 5409 5409 5410 5411 5411 5411 5412 5412 5413 5414 5414 5415 5416 5416 5417 5418 5419 5420 5421 5421 5422 5423 5423 5424 5424 5425 5425 5425 5426 5426 5426 5426 5426 5426
5499 5497 5495 5492 5490 5487 5485 5481 5478 5475 5471 5468 5465 5462 5460 5456 5453 5450 5447 5444 5441 5439 5436 5435 5432 5428 5425 5423 5420 5416 5414 5411 5410 5409 5408 5407 5405 5404 5403 5403 5402 5402 5403 5403 5402 5402 5403 5403 5404 5404 5404 5405 5405 5406 5406 5407 5407 5408 5408 5409 5410 5410 5411 5411 5412 5413 5414 5415 5416 5417 5417 5418 5419 5420 5420 5421 5421 5421 5422 5422 5422 5422 5422 5422 5422 5422
5492 5490 5488 5485 5482 5479 5476 5473 5471 5467 5463 5460 5456 5453 5451 5447 5444 5440 5437 5435 5432 5429 5426 5424 5422 5420 5417 5415 5412 5409 5406 5404 5403 5403 5403 5401 5400 5399 5398 5398 5397 5397 5398 5399 5398 5398 5398 5399 5399 5400 5400 5401 5401 5402 5402 5403 5404 5404 5405 5406 5406 5406 5407 5408 5409 5410 5411 5412 5413 5414 5414 5415 5416 5416 5417 5418 5418 5418 5419 5419 5419 5419 5419 5419 5419 5419
5485 5483 5481 5477 5474 5471 5468 5465 5462 5459 5456 5451 5448 5445 5441 5438 5434 5431 5428 5426 5423 5419 5416 5414 5412 5411 5409 5407 5405 5402 5400 5398 5397 5397 5397 5397 5396 5394 5393 5393 5393 5393 5394 5394 5394 5394 5394 5395 5395 5396 5396 5396 5397 5398 5399 5400 5400 5401 5401 5402 5402 5403 5404 5405 5406 5406 5407 5408 5409 5410 5411 5412 5413 5413 5414 5415 5415 5415 5416 5416 5416 5416 5416 5416 5416 5416
5478 5476 5473 5470 5467 5463 5460 5457 5455 5451 5447 5443 5440 5436 5432 5429 5426 5423 5420 5416 5413 5410 5408 5405 5403 5402 5401 5399 5397 5396 5395 5393 5392 5391 5392 5393 5391 5390 5390 5389 5389 5389 5390 5391 5391 5391 5391 5391 5391 5392 5392 5393 5393 5394 5395 5396 5396 5397 5398 5398 5399 5400 5401 5401 5402 5403 5404 5405 5406 5407 5408 5409 5410 5410 5411 5411 5412 5412 5412 5413 5413 5413 5413 5412 5412 5412
5471 5469 5466 5462 5458 5455 5451 5449 5446 5442 5437 5433 5430 5426 5423 5420 5416 5414 5411 5407 5404 5401 5399 5397 5395 5394 5393 5392 5391 5389 5390 5389 5388 5387 5387 5388 5387 5387 5386 5386 5385 5386 5386 5387 5387 5387 5387 5387 5388 5388 5389 5389 5390 5390 5391 5392 5393 5393 5394 5395 5396 5396 5397 5398 5399 5400 5401 5402 5403 5404 5405 5406 5406 5407 5408 5408 5409 5409 5409 5410 5410 5410 5409 5409 5409 5409
5464 5461 5458 5455 5451 5447 5443 5440 5437 5433 5429 5424 5420 5417 5414 5411 5407 5404 5401 5399 5396 5394 5392 5390 5388 5387 5386 5386 5385 5384 5384 5384 5383 5382 5382 5383 5383 5383 5383 5382 5382 5382 5383 5383 5384 5384 5384 5384 5384 5385 5385 5386 5386 5387 5387 5388 5389 5390 5391 5391 5392 5393 5394 5395 5396 5397 5398 5399 5400 5401 5402 5402 5403 5404 5405 5405 5406 5406 5406 5406 5406 5406 5406 5406 5406 5406
5456 5454 5450 5447 5444 5440 5436 5432 5428 5425 5420 5416 5412 5408 5406 5403 5400 5396 5394 5392 5389 5387 5385 5384 5382 5381 5381 5381 5379 5379 5379 5379 5378 5378 5378 5379 5380 5380 5380 5380 5379 5379 5380 5380 5381 5381 5380 5381 5381 5381 5382 5382 5383 5383 5384 5385 5386 5386 5387 5388 5389 5390 5391 5391 5392 5393 5395 5396 5396 5397 5398 5399 5400 5401 5401 5402 5402 5402 5403 5403 5403 5403 5403 5403 5403 5404
5448 5445 5441 5438 5435 5431 5428 5424 5420 5416 5411 5407 5403 5400 5397 5394 5391 5389 5387 5386 5384 5382 5381 5380 5378 5377 5376 5375 5375 5374 5374 5374 5374 5374 5375 5376 5377 5377 5377 5377 5376 5377 5377 5377 5378 5377 5377 5377 5377 5378 5378 5379 5380 5380 5381 5381 5382 5383 5384 5385 5386 5386 5387 5388 5389 5390 5391 5392 5393 5394 5395 5396 5397 5397 5398 5399 5399 5399 5400 5400 5400 5400 5400 5401 5401 5401
5440 5437 5433 5429 5425 5422 5419 5416 5411 5407 5403 5399 5396 5393 5389 5387 5385 5382 5381 5379 5378 5376 5375 5374 5373 5372 5371 5371 5371 5371 5371 5371 5371 5371 5371 5372 5373 5375 5375 5374 5374 5374 5375 5375 5375 5374 5374 5374 5374 5375 5375 5376 5376 5377 5377 5378 5379 5380 5380 5381 5382 5383 5384 5385 5386 5387 5388 5389 5390 5391 5392 5393 5394 5394 5395 5396 5396 5396 5396 5397 5397 5397 5397 5398 5398 5398
5431 5428 5425 5421 5416 5413 5409 5406 5403 5399 5396 5392 5389 5386 5383 5381 5379 5377 5374 5373 5371 5370 5369 5369 5368 5368 5368 5368 5368 5368 5368 5368 5368 5368 5368 5369 5370 5371 5372 5371 5371 5371 5372 5372 5372 5371 5371 5371 5371 5371 5372 5372 5373 5374 5375 5375 5376 5376 5377 5378 5379 5380 5381 5381 5382 5383 5385 5386 5387 5388 5389 5390 5391 5391 5392 5392 5393 5393 5394 5394 5394 5395 5395 5395 5396 5396
5422 5419 5416 5412 5408 5405 5401 5397 5394 5391 5388 5385 5382 5380 5377 5376 5374 5371 5369 5367 5366 5365 5365 5365 5364 5364 5365 5365 5365 5365 5366 5366 5366 5366 5366 5366 5366 5368 5368 5368 5368 5368 5369 5369 5369 5368 5368 5368 5368 5369 5369 5370 5371 5371 5372 5372 5373 5373 5374 5375 5376 5376 5377 5378 5379 5380 5381 5382 5383 5384 5385 5386 5387 5388 5389 5389 5390 5390 5391 5391 5391 5392 5392 5392 5393 5393
5415 5411 5407 5404 5400 5396 5393 5390 5387 5385 5383 5380 5376 5373 5371 5369 5367 5366 5364 5363 5362 5361 5361 5361 5361 5361 5362 5362 5363 5363 5363 5363 5363 5363 5362 5362 5363 5365 5366 5366 5365 5365 5366 5366 5366 5366 5366 5366 5366 5366 5367 5367 5368 5368 5369 5369 5370 5371 5371 5372 5372 5373 5374 5375 5376 5377 5378 5379 5380 5381 5382 5383 5384 5385 5386 5386 5387 5387 5388 5388 5389 5389 5389 5390 5390 5391
5407 5403 5400 5396 5393 5390 5386 5384 5382 5380 5378 5374 5371 5368 5365 5363 5362 5361 5360 5360 5359 5359 5358 5358 5358 5359 5359 5360 5360 5361 5361 5361 5360 5360 5360 5360 5361 5362 5363 5363 5362 5363 5363 5364 5364 5364 5364 5364 5364 5364 5364 5364 5365 5365 5366 5366 5367 5367 5368 5369 5370 5371 5371 5372 5373 5374 5375 5376 5377 5378 5379 5380 5381 5381 5382 5383 5384 5384 5385 5385 5386 5386 5386 5387 5387 5388
5400 5396 5392 5389 5386 5383 5381 5378 5375 5373 5370 5367 5365 5362 5361 5359 5358 5357 5357 5357 5356 5356 5356 5356 5356 5356 5357 5357 5358 5358 5358 5358 5358 5357 5357 5357 5358 5359 5360 5360 5360 5360 5361 5362 5362 5362 5362 5362 5362 5362 5362 5361 5362 5362 5363 5363 5364 5365 5366 5366 5367 5367 5368 5369 5370 5371 5371 5372 5374 5375 5376 5376 5377 5378 5379 5380 5381 5381 5382 5382 5383 5383 5384 5384 5385 5385
5393 5390 5386 5383 5380 5377 5374 5371 5369 5366 5364 5362 5360 5358 5357 5356 5355 5354 5354 5354 5354 5354 5354 5354 5354 5354 5355 5355 5356 5356 5356 5356 5355 5355 5355 5355 5356 5357 5357 5358 5357 5358 5358 5359 5359 5360 5359 5359 5359 5359 5359 5359 5359 5359 5360 5361 5361 5362 5363 5363 5364 5364 5365 5366 5366 5367 5368 5369 5370 5371 5372 5373 5374 5375 5376 5377 5377 5378 5379 5379 5380 5381 5381 5381 5382 5383
5388 5385 5381 5378 5375 5372 5369 5366 5364 5362 5360 5358 5356 5355 5354 5353 5352 5352 5352 5352 5352 5352 5352 5352 5352 5352 5352 5353 5353 5354 5354 5354 5353 5352 5352 5353 5354 5354 5355 5355 5355 5355 5355 5356 5356 5357 5357 5357 5356 5356 5356 5356 5356 5357 5357 5358 5358 5359 5359 5360 5360 5361 5361 5362 5363 5364 5365 5366 5367 5368 5369 5370 5371 5372 5373 5374 5374 5375 5376 5376 5377 5377 5378 5379 5379 5380
5384 5380 5376 5373 5371 5368 5365 5363 5360 5358 5356 5355 5353 5352 5351 5351 5350 5350 5350 5350 5350 5350 5350 5351 5351 5351 5350 5350 5351 5351 5351 5351 5351 5350 5350 5351 5351 5352 5352 5352 5352 5352 5352 5352 5353 5354 5355 5354 5354 5354 5354 5354 5354 5354 5354 5354 5355 5355 5356 5356 5357 5357 5358 5359 5360 5360 5361 5362 5363 5365 5366 5367 5368 5369 5370 5371 5371 5372 5373 5373 5374 5375 5375 5376 5377 5377
5379 5376 5372 5369 5366 5364 5361 5359 5357 5355 5354 5352 5351 5350 5350 5349 5349 5349 5348 5349 5349 5349 5349 5349 5349 5349 5348 5348 5348 5349 5349 5349 5348 5348 5348 5349 5349 5350 5350 5349 5349 5350 5350 5350 5351 5351 5352 5352 5352 5351 5351 5351 5351 5351 5351 5351 5352 5352 5352 5353 5354 5354 5355 5356 5356 5357 5358 5359 5360 5361 5362 5363 5365 5366 5366 5367 5368 5369 5370 5371 5371 5372 5373 5373 5374 5375
5374 5371 5368 5365 5363 5361 5358 5356 5355 5353 5352 5351 5350 5349 5348 5348 5348 5347 5347 5347 5347 5347 5347 5347 5347 5347 5346 5346 5346 5346 5347 5347 5346 5346 5346 5346 5347 5347 5347 5347 5347 5347 5347 5347 5348 5349 5350 5350 5350 5349 5349 5349 5349 5349 5349 5349 5349 5349 5350 5350 5351 5351 5352 5353 5353 5354 5355 5356 5357 5358 5359 5360 5361 5362 5363 5364 5365 5366 5367 5367 5368 5369 5370 5371 5371 5372
5369 5366 5364 5361 5359 5357 5356 5354 5353 5351 5350 5349 5349 5348 5347 5347 5346 5346 5346 5346 5346 5345 5345 5345 5345 5345 5345 5345 5344 5344 5344 5344 5344 5344 5344 5345 5345 5345 5345 5345 5345 5345 5345 5345 5346 5346 5347 5347 5347 5347 5347 5347 5347 5346 5346 5346 5346 5346 5347 5347 5348 5349 5349 5350 5351 5351 5352 5353 5354 5355 5356 5357 5358 5359 5360 5361 5362 5363 5364 5365 5366 5366 5367 5368 5369 5369
5365 5362 5360 5358 5356 5355 5354 5352 5351 5350 5349 5348 5348 5347 5346 5346 5345 5345 5345 5344 5344 5344 5343 5343 5343 5343 5343 5343 5342 5342 5342 5342 5342 5342 5342 5343 5343 5343 5343 5343 5343 5342 5343 5343 5343 5343 5344 5344 5345 5345 5345 5345 5345 5344 5344 5344 5344 5344 5344 5345 5346 5346 5347 5347 5348 5349 5349 5350 5351 5352 5353 5354 5355 5356 5357 5358 5359 5361 5361 5362 5363 5364 5365 5365 5366 5366
5361 5359 5357 5356 5354 5353 5352 5351 5350 5349 5348 5347 5346 5346 5345 5345 5344 5344 5343 5343 5342 5342 5341 5341 5341 5341 5341 5341 5341 5341 5341 5340 5340 5340 5340 5341 5341 5341 5341 5341 5341 5341 5341 5341 5341 5341 5341 5341 5342 5342 5342 5342 5342 5342 5342 5341 5341 5342 5342 5342 5343 5343 5344 5345 5345 5346 5347 5347 5348 5349 5350 5351 5352 5353 5354 5356 5357 5358 5359 5360 5361 5361 5362 5363 5363 5364
5358 5356 5355 5354 5352 5351 5350 5349 5348 5347 5346 5346 5345 5344 5344 5343 5343 5342 5341 5341 5341 5340 5340 5340 5339 5339 5339 5339 5339 5339 5339 5339 5338 5338 5338 5338 5339 5339 5339 5339 5339 5338 5338 5338 5338 5338 5338 5339 5339 5339 5339 5340 5340 5340 5339 5339 5339 5340 5340 5340 5340 5341 5341 5341 5342 5343 5344 5345 5346 5346 5347 5348 5349 5350 5351 5353 5354 5356 5356 5358 5358 5359 5360 5361 5361 5361
5355 5354 5353 5352 5351 5350 5349 5348 5347 5346 5345 5344 5344 5343 5342 5342 5341 5341 5340 5339 5339 5338 5338 5338 5338 5337 5337 5337 5337 5337 5337 5337 5336 5336 5336 5336 5336 5336 5336 5336 5336 5336 5336 5336 5336 5336 5336 5336 5336 5336 5336 5336 5336 5336 5336 5337 5337 5337 5337 5337 5338 5338 5338 5339 5339 5340 5341 5341 5342 5343 5344 5345 5346 5347 5348 5350 5351 5353 5354 5355 5356 5357 5358 5358 5359 5359
5352 5351 5351 5350 5349 5348 5347 5346 5346 5345 5344 5343 5342 5341 5341 5340 5340 5339 5338 5338 5337 5337 5336 5336 5336 5336 5335 5335 5335 5335 5335 5335 5335 5334 5334 5334 5334 5334 5334 5334 5333 5333 5333 5333 5333 5333 5333 5333 5333 5333 5333 5333 5333 5333 5333 5334 5334 5334 5335 5335 5335 5336 5336 5336 5336 5337 5338 5339 5339 5340 5341 5342 5343 5344 5346 5347 5348 5350 5351 5353 5354 5355 5356 5356 5356 5357
5350 5349 5349 5348 5347 5346 5346 5345 5344 5343 5342 5341 5341 5340 5339 5338 5338 5337 5336 5336 5336 5335 5335 5335 5334 5334 5333 5333 5333 5333 5333 5333 5332 5332 5332 5331 5331 5331 5331 5331 5331 5330 5330 5330 5330 5330 5330 5330 5330 5330 5330 5330 5330 5330 5330 5331 5331 5331 5332 5332 5332 5333 5333 5334 5334 5335 5335 5336 5337 5337 5338 5339 5340 5341 5343 5344 5346 5347 5349 5350 5351 5352 5353 5354 5355 5355
5348 5347 5347 5346 5345 5345 5344 5343 5342 5341 5340 5340 5339 5338 5337 5337 5336 5336 5335 5335 5334 5334 5333 5333 5332 5332 5331 5331 5331 5331 5331 5331 5330 5330 5330 5329 5329 5328 5328 5328 5327 5327 5326 5326 5326 5326 5326 5326 5326 5326 5326 5326 5326 5326 5326 5327 5327 5328 5329 5329 5329 5330 5331 5331 5331 5332 5332 5333 5334 5335 5336 5336 5337 5338 5340 5341 5342 5344 5346 5348 5349 5350 5351 5352 5352 5353
5346 5346 5345 5344 5343 5342 5342 5341 5340 5339 5339 5338 5337 5337 5336 5335 5335 5334 5334 5333 5333 5332 5332 5331 5331 5330 5330 5329 5329 5329 5328 5328 5328 5328 5327 5327 5326 5326 5326 5325 5324 5324 5323 5323 5323 5323 5323 5323 5323 5323 5323 5323 5323 5323 5323 5323 5324 5325 5326 5326 5326 5327 5327 5328 5329 5329 5330 5331 5331 5332 5333 5334 5334 5336 5336 5338 5339 5341 5343 5345 5346 5347 5349 5349 5350 5351
5345 5344 5343 5342 5342 5341 5340 5339 5338 5338 5337 5336 5336 5335 5335 5334 5333 5333 5332 5332 5331 5331 5331 5330 5329 5329 5328 5327 5327 5326 5326 5326 5326 5326 5325 5325 5324 5323 5323 5322 5321 5321 5320 5320 5320 5319 5319 5319 5319 5319 5319 5320 5320 5319 5320 5320 5321 5321 5322 5322 5323 5323 5324 5325 5326 5326 5327 5328 5329 5330 5330 5331 5332 5333 5334 5335 5336 5338 5340 5341 5343 5345 5346 5347 5348 5349
5343 5342 5341 5341 5340 5339 5338 5337 5337 5336 5336 5335 5334 5334 5333 5332 5332 5332 5331 5331 5330 5330 5329 5328 5327 5327 5326 5326 5325 5324 5324 5324 5323 5323 5322 5322 5321 5321 5320 5319 5318 5317 5317 5316 5316 5316 5315 5315 5315 5315 5315 5315 5316 5316 5316 5316 5317 5317 5318 5319 5319 5320 5320 5321 5322 5323 5324 5325 5326 5327 5328 5329 5329 5330 5331 5332 5333 5335 5336 5338 5340 5342 5343 5345 5346 5347
5341 5341 5340 5339 5338 5337 5336 5336 5335 5335 5334 5333 5333 5332 5332 5331 5331 5330 5330 5329 5329 5328 5327 5326 5326 5325 5324 5323 5322 5322 5321 5321 5321 5320 5320 5319 5318 5317 5316 5316 5315 5314 5313 5313 5313 5312 5311 5311 5311 5311 5311 5311 5311 5311 5311 5312 5312 5313 5314 5315 5315 5316 5316 5318 5319 5320 5321 5322 5323 5324 5325 5326 5327 5328 5329 5330 5331 5332 5334 5335 5337 5339 5341 5342 5343 5345
5339 5339 5338 5337 5336 5336 5335 5334 5334 5333 5332 5332 5331 5331 5331 5330 5329 5329 5328 5328 5327 5326 5325 5325 5324 5323 5322 5321 5320 5320 5319 5319 5318 5317 5317 5316 5315 5314 5313 5313 5312 5311 5310 5310 5309 5309 5308 5307 5307 5306 5306 5306 5307 5307 5307 5307 5308 5308 5309 5310 5311 5312 5313 5314 5315 5316 5318 5319 5321 5321 5322 5323 5324 5325 5326 5328 5329 5330 5331 5333 5334 5336 5338 5340 5341 5342
5338 5337 5336 5336 5335 5334 5333 5333 5332 5331 5331 5331 5330 5330 5329 5329 5328 5327 5327 5326 5326 5325 5324 5323 5322 5321 5320 5319 5318 5318 5317 5316 5316 5315 5315 5314 5313 5312 5311 5310 5309 5308 5307 5306 5306 5305 5305 5304 5303 5303 5302 5302 5302 5302 5303 5303 5303 5304 5305 5305 5306 5307 5308 5310 5311 5312 5314 5316 5317 5318 5319 5320 5321 5323 5324 5326 5327 5328 5329 5331 5332 5333 5335 5337 5339 5340
5336 5335 5335 5334 5333 5332 5332 5331 5331 5330 5330 5329 5329 5328 5328 5327 5327 5326 5325 5325 5324 5323 5322 5321 5320 5319 5318 5317 5316 5316 5315 5314 5314 5313 5312 5311 5311 5310 5309 5308 5306 5306 5304 5303 5302 5301 5301 5300 5300 5299 5299 5299 5298 5298 5298 5299 5299 5300 5300 5301 5302 5303 5304 5305 5307 5308 5310 5311 5313 5314 5315 5317 5318 5320 5321 5323 5325 5326 5327 5328 5330 5331 5333 5335 5336 5338
5334 5333 5333 5332 5331 5331 5330 5330 5329 5329 5328 5328 5327 5327 5326 5326 5325 5325 5324 5323 5322 5321 5320 5319 5318 5317 5316 5316 5315 5314 5313 5313 5312 5311 5311 5310 5309 5308 5306 5306 5304 5303 5302 5301 5300 5299 5297 5297 5296 5296 5296 5295 5295 5295 5294 5295 5295 5296 5296 5296 5297 5299 5300 5301 5302 5304 5305 5307 5309 5310 5312 5314 5315 5317 5318 5320 5322 5323 5325 5326 5328 5329 5331 5332 5334 5336
5332 5332 5331 5331 5330 5329 5329 5328 5328 5327 5327 5326 5326 5326 5325 5324 5324 5323 5322 5321 5320 5319 5318 5317 5316 5316 5315 5314 5314 5313 5312 5311 5311 5310 5309 5308 5307 5306 5305 5303 5302 5301 5300 5298 5297 5296 5295 5294 5293 5292 5292 5292 5291 5291 5291 5291 5291 5291 5292 5293 5294 5295 5296 5297 5299 5300 5301 5303 5305 5306 5308 5310 5311 5313 5315 5317 5319 5321 5323 5324 5326 5327 5328 5330 5332 5334
5331 5330 5330 5329 5328 5328 5327 5327 5326 5326 5326 5325 5325 5324 5323 5323 5322 5321 5321 5319 5318 5318 5317 5316 5315 5315 5314 5313 5312 5312 5311 5310 5309 5308 5307 5306 5305 5304 5303 5302 5301 5299 5298 5296 5295 5294 5292 5291 5290 5289 5289 5288 5288 5288 5288 5288 5288 5288 5289 5290 5291 5292 5293 5294 5295 5296 5297 5299 5301 5302 5304 5306 5308 5310 5312 5314 5316 5318 5320 5322 5323 5325 5326 5328 5330 5332
5329 5328 5328 5327 5327 5326 5326 5326 5325 5325 5324 5324 5323 5322 5322 5321 5321 5320 5319 5318 5317 5316 5316 5315 5314 5314 5313 5312 5311 5311 5310 5309 5308 5307 5306 5305 5304 5303 5302 5301 5299 5298 5296 5295 5293 5292 5291 5290 5288 5287 5286 5286 5286 5286 5286 5286 5286 5286 5287 5287 5288 5289 5290 5291 5292 5293 5294 5296 5297 5299 5301 5303 5305 5307 5309 5311 5314 5316 5317 5319 5321 5323 5324 5326 5328 5330